DLH1015 SPJC-SPZO

Flight info

Callsign DLH1015
Flight time 1h 15m
Altitude 35000
Route JCL DCT LPA DCT AND DCT ZCO
Aircraft A388/J-SADE2E3FGHIJ3J4J5M1RWXY/LB1D1

Departure

Time 2026-05-05 11:39
Airport Jorge Chávez International Airport (SPJC)

Arrival

Time 2026-05-05 12:54
Airport Alejandro Velasco Astete International Airport (SPZO)
Time Latitude Longitude Altitude Speed Heading
2026-05-05 11:01 -12.02536 -77.11772 85 ft 0 kts 244°
2026-05-05 11:27 -12.02536 -77.11770 85 ft 2 kts 244°
2026-05-05 11:27 -12.02528 -77.11755 85 ft 2 kts 244°
2026-05-05 11:28 -12.02521 -77.11740 85 ft 2 kts 244°
2026-05-05 11:28 -12.02514 -77.11725 85 ft 2 kts 240°
2026-05-05 11:28 -12.02499 -77.11719 85 ft 2 kts 187°
2026-05-05 11:28 -12.02483 -77.11722 90 ft 2 kts 162°
2026-05-05 11:29 -12.02468 -77.11728 85 ft 2 kts 156°
2026-05-05 11:29 -12.02453 -77.11735 85 ft 2 kts 156°
2026-05-05 11:29 -12.02438 -77.11742 90 ft 2 kts 156°
2026-05-05 11:29 -12.02424 -77.11749 85 ft 2 kts 156°
2026-05-05 11:30 -12.02409 -77.11755 85 ft 2 kts 155°
2026-05-05 11:30 -12.02399 -77.11760 89 ft 2 kts 155°
2026-05-05 11:30 -12.02384 -77.11767 90 ft 2 kts 155°
2026-05-05 11:30 -12.02369 -77.11774 85 ft 2 kts 155°
2026-05-05 11:31 -12.02363 -77.11777 85 ft 1 kts 154°
2026-05-05 11:32 -12.02364 -77.11776 85 ft 2 kts 155°
2026-05-05 11:32 -12.02381 -77.11766 85 ft 3 kts 125°
2026-05-05 11:32 -12.02388 -77.11741 90 ft 6 kts 90°
2026-05-05 11:32 -12.02374 -77.11687 85 ft 10 kts 64°
2026-05-05 11:33 -12.02336 -77.11607 89 ft 14 kts 59°
2026-05-05 11:33 -12.02245 -77.11581 83 ft 17 kts 336°
2026-05-05 11:33 -12.02115 -77.11639 78 ft 23 kts 336°
2026-05-05 11:33 -12.01963 -77.11720 75 ft 25 kts 332°
2026-05-05 11:34 -12.01839 -77.11779 65 ft 20 kts 335°
2026-05-05 11:34 -12.01824 -77.11786 73 ft 0 kts 335°
2026-05-05 11:35 -12.01823 -77.11787 73 ft 1 kts 335°
2026-05-05 11:35 -12.01796 -77.11799 72 ft 6 kts 335°
2026-05-05 11:35 -12.01736 -77.11829 71 ft 13 kts 334°
2026-05-05 11:35 -12.01639 -77.11879 70 ft 18 kts 333°
2026-05-05 11:36 -12.01513 -77.11945 69 ft 22 kts 334°
2026-05-05 11:36 -12.01360 -77.12021 57 ft 26 kts 334°
2026-05-05 11:36 -12.01221 -77.12145 53 ft 27 kts 315°
2026-05-05 11:36 -12.01047 -77.12242 53 ft 30 kts 335°
2026-05-05 11:37 -12.00930 -77.12297 50 ft 10 kts 335°
2026-05-05 11:37 -12.00859 -77.12292 57 ft 12 kts 39°
2026-05-05 11:37 -12.00809 -77.12210 53 ft 16 kts 63°
2026-05-05 11:37 -12.00793 -77.12147 57 ft 1 kts 110°
2026-05-05 11:38 -12.00803 -77.12125 50 ft 5 kts 126°
2026-05-05 11:38 -12.00857 -77.12084 57 ft 10 kts 155°
2026-05-05 11:38 -12.00860 -77.12083 57 ft 0 kts 155°
2026-05-05 11:38 -12.01013 -77.12011 60 ft 65 kts 155°
2026-05-05 11:39 -12.01660 -77.11695 65 ft 135 kts 154°
2026-05-05 11:39 -12.02605 -77.11207 321 ft 159 kts 154°
2026-05-05 11:39 -12.03608 -77.10704 881 ft 163 kts 155°
2026-05-05 11:39 -12.04648 -77.10234 1539 ft 161 kts 156°
2026-05-05 11:40 -12.05678 -77.09758 2010 ft 172 kts 155°
2026-05-05 11:40 -12.06822 -77.09205 2279 ft 194 kts 154°
2026-05-05 11:40 -12.08120 -77.08558 2726 ft 218 kts 154°
2026-05-05 11:40 -12.09562 -77.07830 3248 ft 242 kts 153°
2026-05-05 11:41 -12.11126 -77.07038 3747 ft 266 kts 153°
2026-05-05 11:41 -12.12822 -77.06182 4513 ft 273 kts 154°
2026-05-05 11:41 -12.14654 -77.05648 5373 ft 278 kts 177°
2026-05-05 11:41 -12.16571 -77.05939 5846 ft 281 kts 202°
2026-05-05 11:42 -12.18173 -77.07008 5987 ft 281 kts 227°
2026-05-05 11:42 -12.19202 -77.08685 5999 ft 280 kts 249°
2026-05-05 11:42 -12.19795 -77.10582 5996 ft 279 kts 255°
2026-05-05 11:42 -12.20336 -77.12485 5995 ft 278 kts 253°
2026-05-05 11:43 -12.20946 -77.14344 5995 ft 279 kts 251°
2026-05-05 11:43 -12.21636 -77.16202 5995 ft 279 kts 249°
2026-05-05 11:43 -12.22369 -77.18040 5994 ft 279 kts 248°
2026-05-05 11:43 -12.23121 -77.19869 5993 ft 279 kts 248°
2026-05-05 11:44 -12.23878 -77.21695 5991 ft 279 kts 248°
2026-05-05 11:44 -12.24681 -77.23499 5997 ft 279 kts 240°
2026-05-05 11:44 -12.25930 -77.25020 6208 ft 283 kts 221°
2026-05-05 11:44 -12.27579 -77.26134 6832 ft 285 kts 213°
2026-05-05 11:45 -12.29260 -77.27222 7665 ft 287 kts 214°
2026-05-05 11:45 -12.30949 -77.28348 8415 ft 292 kts 214°
2026-05-05 11:45 -12.32661 -77.29493 9175 ft 296 kts 214°
2026-05-05 11:45 -12.34400 -77.30653 9921 ft 301 kts 214°
2026-05-05 11:46 -12.36140 -77.31890 10402 ft 312 kts 223°
2026-05-05 11:46 -12.37474 -77.33711 10588 ft 331 kts 246°
2026-05-05 11:46 -12.38054 -77.36035 10823 ft 346 kts 269°
2026-05-05 11:46 -12.37708 -77.38471 11418 ft 349 kts 290°
2026-05-05 11:47 -12.36515 -77.40634 12031 ft 353 kts 310°
2026-05-05 11:47 -12.34632 -77.42249 12640 ft 358 kts 331°
2026-05-05 11:47 -12.32283 -77.43110 13261 ft 362 kts 351°
2026-05-05 11:47 -12.29762 -77.43111 13854 ft 367 kts 11°
2026-05-05 11:48 -12.25383 -77.40618 15138 ft 367 kts 49°
2026-05-05 11:48 -12.24023 -77.38452 15748 ft 369 kts 67°
2026-05-05 11:48 -12.23284 -77.35937 16337 ft 371 kts 77°
2026-05-05 11:49 -12.22763 -77.33347 16946 ft 373 kts 79°
2026-05-05 11:49 -12.22265 -77.30732 17574 ft 375 kts 78°
2026-05-05 11:49 -12.21743 -77.28110 18182 ft 378 kts 78°
2026-05-05 11:49 -12.21192 -77.25476 18677 ft 381 kts 77°
2026-05-05 11:50 -12.20619 -77.22817 19128 ft 385 kts 77°
2026-05-05 11:50 -12.20032 -77.20139 19601 ft 388 kts 77°
2026-05-05 11:50 -12.19439 -77.17440 20062 ft 391 kts 77°
2026-05-05 11:50 -12.18839 -77.14716 20518 ft 394 kts 77°
2026-05-05 11:51 -12.18235 -77.11971 20967 ft 398 kts 77°
2026-05-05 11:51 -12.17626 -77.09203 21426 ft 401 kts 77°
2026-05-05 11:51 -12.17012 -77.06412 21858 ft 404 kts 77°
2026-05-05 11:51 -12.16402 -77.03598 22279 ft 407 kts 79°
2026-05-05 11:52 -12.16201 -77.00699 22708 ft 411 kts 92°
2026-05-05 11:52 -12.16658 -76.97809 23142 ft 416 kts 105°
2026-05-05 11:52 -12.17725 -76.95049 23556 ft 420 kts 114°
2026-05-05 11:52 -12.18945 -76.92323 23902 ft 423 kts 113°
2026-05-05 11:53 -12.20157 -76.89575 24264 ft 426 kts 113°
2026-05-05 11:53 -12.21375 -76.86803 24626 ft 428 kts 113°
2026-05-05 11:53 -12.22597 -76.84018 25048 ft 429 kts 112°
2026-05-05 11:53 -12.23823 -76.81221 25372 ft 433 kts 112°
2026-05-05 11:54 -12.25060 -76.78399 25731 ft 437 kts 112°
2026-05-05 11:54 -12.26308 -76.75556 26092 ft 440 kts 112°
2026-05-05 11:54 -12.27562 -76.72695 26457 ft 443 kts 112°
2026-05-05 11:54 -12.28810 -76.69846 26825 ft 447 kts 112°
2026-05-05 11:55 -12.30085 -76.66936 27201 ft 450 kts 112°
2026-05-05 11:55 -12.31369 -76.64003 27608 ft 454 kts 112°
2026-05-05 11:55 -12.32664 -76.61045 28042 ft 457 kts 112°
2026-05-05 11:55 -12.33968 -76.58066 28452 ft 462 kts 112°
2026-05-05 11:56 -12.35279 -76.55070 28862 ft 466 kts 112°
2026-05-05 11:56 -12.36606 -76.52036 29304 ft 470 kts 112°
2026-05-05 11:56 -12.37946 -76.48970 29781 ft 474 kts 112°
2026-05-05 11:56 -12.39299 -76.45873 30191 ft 479 kts 112°
2026-05-05 11:57 -12.40661 -76.42758 30648 ft 481 kts 112°
2026-05-05 11:57 -12.42029 -76.39627 31091 ft 483 kts 111°
2026-05-05 11:57 -12.43404 -76.36481 31425 ft 488 kts 111°
2026-05-05 11:57 -12.44793 -76.33294 31924 ft 491 kts 111°
2026-05-05 11:58 -12.46187 -76.30099 32372 ft 493 kts 111°
2026-05-05 11:58 -12.47587 -76.26887 32795 ft 496 kts 110°
2026-05-05 11:58 -12.48997 -76.23655 33204 ft 498 kts 110°
2026-05-05 11:58 -12.50416 -76.20398 33585 ft 502 kts 110°
2026-05-05 11:59 -12.51841 -76.17130 34113 ft 503 kts 110°
2026-05-05 11:59 -12.53269 -76.13846 34417 ft 508 kts 110°
2026-05-05 11:59 -12.54709 -76.10535 34771 ft 511 kts 111°
2026-05-05 11:59 -12.56158 -76.07203 35043 ft 513 kts 111°
2026-05-05 12:00 -12.59051 -76.00553 35132 ft 514 kts 111°
2026-05-05 12:00 -12.61965 -75.93848 35141 ft 517 kts 111°
2026-05-05 12:01 -12.64881 -75.87134 35186 ft 516 kts 111°
2026-05-05 12:01 -12.67792 -75.80422 35151 ft 515 kts 111°
2026-05-05 12:02 -12.70698 -75.73716 35217 ft 515 kts 111°
2026-05-05 12:02 -12.73608 -75.66999 35206 ft 516 kts 111°
2026-05-05 12:03 -12.76515 -75.60278 35273 ft 516 kts 111°
2026-05-05 12:03 -12.79422 -75.53555 35275 ft 516 kts 111°
2026-05-05 12:04 -12.82331 -75.46821 35304 ft 517 kts 111°
2026-05-05 12:04 -12.85239 -75.40085 35314 ft 516 kts 111°
2026-05-05 12:05 -12.88143 -75.33352 35347 ft 517 kts 111°
2026-05-05 12:05 -12.91045 -75.26616 35347 ft 517 kts 111°
2026-05-05 12:06 -12.93946 -75.19880 35370 ft 517 kts 111°
2026-05-05 12:06 -12.96845 -75.13138 35375 ft 517 kts 111°
2026-05-05 12:07 -12.99741 -75.06402 35394 ft 517 kts 111°
2026-05-05 12:07 -13.02642 -74.99651 35402 ft 517 kts 111°
2026-05-05 12:08 -13.05513 -74.92960 35400 ft 516 kts 111°
2026-05-05 12:08 -13.08406 -74.86212 35403 ft 516 kts 111°
2026-05-05 12:09 -13.11297 -74.79467 35407 ft 516 kts 111°
2026-05-05 12:09 -13.14181 -74.72729 35423 ft 516 kts 111°
2026-05-05 12:10 -13.17063 -74.65984 35417 ft 516 kts 111°
2026-05-05 12:10 -13.19950 -74.59232 35434 ft 516 kts 111°
2026-05-05 12:11 -13.22831 -74.52483 35435 ft 516 kts 111°
2026-05-05 12:11 -13.25709 -74.45739 35459 ft 516 kts 111°
2026-05-05 12:12 -13.28584 -74.38991 35450 ft 515 kts 111°
2026-05-05 12:12 -13.31454 -74.32249 35461 ft 515 kts 111°
2026-05-05 12:13 -13.34323 -74.25513 35460 ft 515 kts 111°
2026-05-05 12:13 -13.37194 -74.18760 35424 ft 516 kts 111°
2026-05-05 12:14 -13.40063 -74.12010 35424 ft 516 kts 111°
2026-05-05 12:14 -13.42921 -74.05277 35086 ft 512 kts 111°
2026-05-05 12:15 -13.44344 -74.01924 34859 ft 512 kts 111°
2026-05-05 12:15 -13.45759 -73.98585 34635 ft 511 kts 111°
2026-05-05 12:15 -13.47179 -73.95235 34405 ft 509 kts 110°
2026-05-05 12:15 -13.48570 -73.91948 34137 ft 506 kts 110°
2026-05-05 12:16 -13.49971 -73.88639 33887 ft 504 kts 110°
2026-05-05 12:16 -13.51385 -73.85297 33637 ft 502 kts 110°
2026-05-05 12:16 -13.52755 -73.82059 33379 ft 499 kts 111°
2026-05-05 12:16 -13.54136 -73.78794 33108 ft 498 kts 111°
2026-05-05 12:17 -13.55512 -73.75538 32862 ft 495 kts 111°
2026-05-05 12:17 -13.56881 -73.72299 32617 ft 493 kts 111°
2026-05-05 12:17 -13.58242 -73.69076 32378 ft 491 kts 111°
2026-05-05 12:17 -13.59595 -73.65869 32167 ft 488 kts 111°
2026-05-05 12:18 -13.60942 -73.62678 31952 ft 485 kts 111°
2026-05-05 12:18 -13.62279 -73.59507 31738 ft 482 kts 111°
2026-05-05 12:18 -13.63609 -73.56353 31525 ft 481 kts 111°
2026-05-05 12:18 -13.64505 -73.54227 31398 ft 479 kts 111°
2026-05-05 12:19 -13.65829 -73.51085 31191 ft 478 kts 111°
2026-05-05 12:19 -13.67151 -73.47947 31000 ft 477 kts 111°
2026-05-05 12:19 -13.68467 -73.44824 30813 ft 475 kts 111°
2026-05-05 12:19 -13.69777 -73.41713 30572 ft 473 kts 111°
2026-05-05 12:20 -13.71137 -73.38639 30290 ft 472 kts 116°
2026-05-05 12:20 -13.72824 -73.35752 30037 ft 471 kts 123°
2026-05-05 12:20 -13.74714 -73.33062 29776 ft 469 kts 124°
2026-05-05 12:20 -13.76618 -73.30344 29514 ft 467 kts 124°
2026-05-05 12:21 -13.78501 -73.27638 29241 ft 463 kts 124°
2026-05-05 12:21 -13.80364 -73.24957 28963 ft 460 kts 124°
2026-05-05 12:21 -13.82227 -73.22277 28672 ft 458 kts 124°
2026-05-05 12:21 -13.84077 -73.19614 28381 ft 456 kts 124°
2026-05-05 12:22 -13.85917 -73.16968 28110 ft 454 kts 124°
2026-05-05 12:22 -13.87753 -73.14326 27847 ft 452 kts 124°
2026-05-05 12:22 -13.89578 -73.11699 27499 ft 451 kts 124°
2026-05-05 12:22 -13.91397 -73.09080 27260 ft 449 kts 124°
2026-05-05 12:23 -13.93208 -73.06471 27017 ft 447 kts 124°
2026-05-05 12:23 -13.95011 -73.03874 26775 ft 445 kts 124°
2026-05-05 12:23 -13.96807 -73.01286 26531 ft 444 kts 124°
2026-05-05 12:23 -13.98600 -72.98699 26303 ft 443 kts 124°
2026-05-05 12:24 -14.00386 -72.96123 26067 ft 441 kts 124°
2026-05-05 12:24 -14.02164 -72.93562 25839 ft 438 kts 124°
2026-05-05 12:24 -14.03930 -72.91016 25610 ft 435 kts 124°
2026-05-05 12:24 -14.05686 -72.88481 25385 ft 434 kts 124°
2026-05-05 12:25 -14.07437 -72.85953 25156 ft 432 kts 124°
2026-05-05 12:25 -14.09175 -72.83443 24936 ft 430 kts 124°
2026-05-05 12:25 -14.10911 -72.80936 24715 ft 429 kts 124°
2026-05-05 12:25 -14.12636 -72.78442 24496 ft 427 kts 124°
2026-05-05 12:26 -14.14354 -72.75959 24282 ft 425 kts 124°
2026-05-05 12:26 -14.16072 -72.73475 24062 ft 424 kts 124°
2026-05-05 12:26 -14.17758 -72.71036 23838 ft 423 kts 124°
2026-05-05 12:26 -14.19457 -72.68578 23571 ft 420 kts 124°
2026-05-05 12:27 -14.21147 -72.66132 23345 ft 417 kts 123°
2026-05-05 12:27 -14.22825 -72.63702 23332 ft 417 kts 124°
2026-05-05 12:27 -14.24511 -72.61259 23333 ft 418 kts 124°
2026-05-05 12:27 -14.26198 -72.58816 23333 ft 419 kts 124°
2026-05-05 12:28 -14.27888 -72.56368 23328 ft 419 kts 124°
2026-05-05 12:28 -14.29578 -72.53918 23327 ft 420 kts 124°
2026-05-05 12:28 -14.31269 -72.51467 23316 ft 419 kts 124°
2026-05-05 12:28 -14.32961 -72.49013 23319 ft 420 kts 124°
2026-05-05 12:29 -14.34652 -72.46559 23320 ft 420 kts 124°
2026-05-05 12:29 -14.36341 -72.44107 23316 ft 419 kts 124°
2026-05-05 12:29 -14.38031 -72.41655 23317 ft 419 kts 124°
2026-05-05 12:29 -14.39720 -72.39203 23320 ft 419 kts 124°
2026-05-05 12:30 -14.41412 -72.36747 23317 ft 419 kts 124°
2026-05-05 12:30 -14.43098 -72.34297 23320 ft 419 kts 124°
2026-05-05 12:30 -14.44787 -72.31843 23320 ft 420 kts 124°
2026-05-05 12:30 -14.46477 -72.29386 23318 ft 419 kts 124°
2026-05-05 12:31 -14.48165 -72.26930 23317 ft 419 kts 124°
2026-05-05 12:31 -14.49848 -72.24484 23331 ft 419 kts 123°
2026-05-05 12:31 -14.51540 -72.22023 23330 ft 419 kts 123°
2026-05-05 12:31 -14.53226 -72.19569 23341 ft 419 kts 123°
2026-05-05 12:32 -14.54884 -72.17153 23344 ft 419 kts 123°
2026-05-05 12:32 -14.56574 -72.14692 23343 ft 419 kts 123°
2026-05-05 12:32 -14.58260 -72.12236 23340 ft 419 kts 123°
2026-05-05 12:32 -14.59946 -72.09779 23352 ft 419 kts 123°
2026-05-05 12:33 -14.61635 -72.07318 23349 ft 419 kts 123°
2026-05-05 12:33 -14.63320 -72.04860 23352 ft 420 kts 123°
2026-05-05 12:33 -14.65005 -72.02402 23362 ft 419 kts 123°
2026-05-05 12:33 -14.66688 -71.99947 23363 ft 419 kts 123°
2026-05-05 12:34 -14.68374 -71.97487 23376 ft 419 kts 123°
2026-05-05 12:34 -14.70057 -71.95030 23376 ft 420 kts 123°
2026-05-05 12:34 -14.71743 -71.92567 23375 ft 419 kts 123°
2026-05-05 12:34 -14.73258 -71.90011 23318 ft 415 kts 112°
2026-05-05 12:35 -14.74110 -71.87217 23247 ft 402 kts 98°
2026-05-05 12:35 -14.74209 -71.84392 23137 ft 388 kts 82°
2026-05-05 12:35 -14.73546 -71.81759 23025 ft 372 kts 65°
2026-05-05 12:35 -14.72182 -71.79562 22895 ft 358 kts 47°
2026-05-05 12:36 -14.70258 -71.78013 22761 ft 349 kts 27°
2026-05-05 12:36 -14.67963 -71.77260 22509 ft 347 kts
2026-05-05 12:36 -14.65540 -71.77304 22267 ft 350 kts 356°
2026-05-05 12:36 -14.63114 -71.77490 22024 ft 349 kts 360°
2026-05-05 12:37 -14.60693 -71.77448 21767 ft 347 kts
2026-05-05 12:37 -14.58296 -71.77184 21530 ft 345 kts
2026-05-05 12:37 -14.55961 -71.76793 21391 ft 344 kts 12°
2026-05-05 12:37 -14.53614 -71.76338 21379 ft 343 kts 12°
2026-05-05 12:38 -14.51267 -71.75863 21382 ft 344 kts 13°
2026-05-05 12:38 -14.48912 -71.75383 21384 ft 345 kts 12°
2026-05-05 12:38 -14.46560 -71.74908 21372 ft 345 kts 12°
2026-05-05 12:38 -14.44208 -71.74435 21361 ft 344 kts 12°
2026-05-05 12:39 -14.41851 -71.73962 21363 ft 345 kts 12°
2026-05-05 12:39 -14.39495 -71.73491 21363 ft 345 kts 12°
2026-05-05 12:39 -14.37144 -71.73022 21366 ft 344 kts 12°
2026-05-05 12:39 -14.34791 -71.72552 21362 ft 345 kts 12°
2026-05-05 12:40 -14.32439 -71.72080 21367 ft 344 kts 12°
2026-05-05 12:40 -14.30082 -71.71609 21371 ft 345 kts 12°
2026-05-05 12:40 -14.27729 -71.71139 21371 ft 345 kts 12°
2026-05-05 12:40 -14.25373 -71.70669 21374 ft 344 kts 12°
2026-05-05 12:41 -14.23020 -71.70198 21384 ft 345 kts 12°
2026-05-05 12:41 -14.20665 -71.69729 21374 ft 345 kts 12°
2026-05-05 12:41 -14.18310 -71.69260 21369 ft 345 kts 13°
2026-05-05 12:41 -14.15952 -71.68789 21358 ft 345 kts 13°
2026-05-05 12:42 -14.13587 -71.68318 21180 ft 346 kts 13°
2026-05-05 12:42 -14.11229 -71.67850 20949 ft 344 kts 12°
2026-05-05 12:42 -14.08919 -71.67393 20716 ft 342 kts 13°
2026-05-05 12:42 -14.06580 -71.66927 20462 ft 342 kts 13°
2026-05-05 12:43 -14.04252 -71.66458 20349 ft 340 kts 14°
2026-05-05 12:43 -14.01977 -71.65819 20350 ft 339 kts 20°
2026-05-05 12:43 -13.99774 -71.64948 20311 ft 340 kts 24°
2026-05-05 12:43 -13.97566 -71.64050 20088 ft 341 kts 23°
2026-05-05 12:44 -13.95344 -71.63166 19680 ft 342 kts 23°
2026-05-05 12:44 -13.93125 -71.62288 19132 ft 339 kts 23°
2026-05-05 12:44 -13.90967 -71.61433 18925 ft 324 kts 23°
2026-05-05 12:44 -13.88857 -71.60744 18865 ft 314 kts 15°
2026-05-05 12:45 -13.86733 -71.60433 18692 ft 302 kts
2026-05-05 12:45 -13.84683 -71.60478 18592 ft 287 kts 358°
2026-05-05 12:45 -13.82738 -71.60607 18530 ft 274 kts 359°
2026-05-05 12:45 -13.80856 -71.60702 18171 ft 268 kts 360°
2026-05-05 12:46 -13.78993 -71.60785 17734 ft 268 kts 360°
2026-05-05 12:46 -13.77143 -71.60871 17373 ft 265 kts 359°
2026-05-05 12:46 -13.75360 -71.60968 17201 ft 248 kts 356°
2026-05-05 12:46 -13.73751 -71.61273 16992 ft 223 kts 346°
2026-05-05 12:47 -13.72340 -71.61800 16454 ft 213 kts 337°
2026-05-05 12:47 -13.71043 -71.62528 15936 ft 211 kts 328°
2026-05-05 12:47 -13.69886 -71.63437 15801 ft 208 kts 320°
2026-05-05 12:47 -13.68852 -71.64509 15788 ft 215 kts 313°
2026-05-05 12:48 -13.67825 -71.65633 15717 ft 213 kts 315°
2026-05-05 12:48 -13.66796 -71.66716 15393 ft 210 kts 315°
2026-05-05 12:48 -13.65779 -71.67784 14977 ft 208 kts 315°
2026-05-05 12:48 -13.64773 -71.68853 14859 ft 210 kts 314°
2026-05-05 12:49 -13.63774 -71.69921 14801 ft 208 kts 314°
2026-05-05 12:49 -13.62783 -71.70987 14490 ft 205 kts 314°
2026-05-05 12:49 -13.61806 -71.72037 14056 ft 200 kts 314°
2026-05-05 12:49 -13.60922 -71.73047 13912 ft 176 kts 309°
2026-05-05 12:50 -13.60235 -71.74029 13627 ft 169 kts 302°
2026-05-05 12:50 -13.59641 -71.75089 13465 ft 169 kts 297°
2026-05-05 12:50 -13.59152 -71.76179 13434 ft 170 kts 292°
2026-05-05 12:50 -13.58720 -71.77315 13427 ft 170 kts 292°
2026-05-05 12:51 -13.58273 -71.78426 13232 ft 167 kts 292°
2026-05-05 12:51 -13.57823 -71.79527 12800 ft 167 kts 292°
2026-05-05 12:51 -13.57380 -71.80624 12650 ft 166 kts 292°
2026-05-05 12:51 -13.56937 -71.81733 12689 ft 169 kts 292°
2026-05-05 12:52 -13.56501 -71.82863 12408 ft 170 kts 290°
2026-05-05 12:52 -13.56099 -71.84002 12156 ft 169 kts 289°
2026-05-05 12:52 -13.55727 -71.85147 11794 ft 168 kts 289°
2026-05-05 12:52 -13.55279 -71.86244 11614 ft 166 kts 294°
2026-05-05 12:53 -13.54806 -71.87325 11479 ft 166 kts 291°
2026-05-05 12:53 -13.54432 -71.88441 11279 ft 165 kts 286°
2026-05-05 12:53 -13.54131 -71.89585 11073 ft 166 kts 283°
2026-05-05 12:53 -13.53919 -71.90743 10905 ft 165 kts 278°
2026-05-05 12:54 -13.53673 -71.92997 10754 ft 141 kts 277°
2026-05-05 12:54 -13.53597 -71.93656 10797 ft 39 kts 275°
2026-05-05 12:54 -13.53591 -71.93723 10806 ft 5 kts 276°
2026-05-05 12:55 -13.53585 -71.93777 10804 ft 9 kts 276°
2026-05-05 12:55 -13.53578 -71.93841 10808 ft 10 kts 276°
2026-05-05 12:55 -13.53573 -71.93914 10812 ft 10 kts 264°
2026-05-05 12:55 -13.53588 -71.93983 10811 ft 9 kts 249°
2026-05-05 12:56 -13.53612 -71.94044 10814 ft 9 kts 247°
2026-05-05 12:56 -13.53636 -71.94102 10816 ft 9 kts 244°
2026-05-05 12:56 -13.53663 -71.94160 10819 ft 8 kts 246°
2026-05-05 12:56 -13.53673 -71.94215 10821 ft 9 kts 271°
2026-05-05 12:57 -13.53677 -71.94243 10821 ft 5 kts 246°
2026-05-05 12:57 -13.53698 -71.94266 10822 ft 5 kts 203°
2026-05-05 12:57 -13.53735 -71.94269 10822 ft 7 kts 178°
2026-05-05 12:57 -13.53738 -71.94269 10822 ft 0 kts 178°